Flag for U.S.A. Weather past 2 weeks in Bellingham, Washington, U.S.A.

Now
64 °F

Sunny.


Feels Like: 64 °F
Forecast: 54 / 70 °F
Wind: 10 mph from Southwest

Location: Bellingham International Airport

Current Time: Aug 21, 2014 at 1:27:04 PM

Latest Report: Aug 21, 2014 at 12:53 PM


Visibility: 10 mi

Pressure: 30.03 "Hg

Humidity: 65%

Dew point: 52 °F

Location of BellinghamLocation

Historic Weather in Bellingham — Graph

°F

Bellingham temperature yesterday

Maximum temperature yesterday: 70 °F (at 3:53 PM)
Minimum temperature yesterday: 60 °F (at 2:53 AM)
Average temperature yesterday: 64 °F

Past Weeks' High & Low Weather Summary

 TemperatureHumidityPressure
High84 °F (Aug 11, 11:53 AM)94% (Aug 11, 5:55 AM)30.18 "Hg (Aug 11, 5:55 AM)
Low50 °F (Aug 9, 4:53 AM)38% (Aug 9, 6:53 PM)29.77 "Hg (Aug 19, 6:53 PM)
Average66 °F75%30.01 "Hg
* Reported Aug 6 11:53 AM — Aug 21 11:53 AM, Bellingham, Weather by CustomWeather, © 2014

Note: Actual official high and low records may vary slightly from our data, if they occured in-between our weather recording intervals... More about our weather records

Advertising

Bellingham weather history for previous 24 hours

 ConditionsComfort  
Time TempWeatherWind HumidityBarometerVisibility
11:53 AM
Aug 21
62 °FSunny.10 mph73%30.03 "Hg10 mi
10:53 AM61 °FBroken clouds.10 mph72%30.04 "Hg10 mi
9:53 AM61 °FSunny.12 mph72%30.04 "Hg10 mi
8:53 AM60 °FOvercast.9 mph75%30.04 "Hg10 mi
7:53 AM57 °FSunny.8 mph87%30.03 "Hg9 mi
6:53 AM57 °FClear.6 mph81%30.03 "Hg10 mi
5:53 AM57 °FClear.6 mph83%30.02 "Hg10 mi
4:53 AM57 °FClear.6 mph87%30.01 "Hg10 mi
3:53 AM58 °FClear.7 mph84%30.01 "Hg9 mi
2:53 AM59 °FClear.6 mph84%30.01 "Hg10 mi
1:53 AM60 °FClear.7 mph83%30.01 "Hg10 mi
12:53 AM61 °FClear.5 mph81%30.00 "Hg10 mi
11:53 PM
Aug 20
62 °FPassing clouds.6 mph75%30.00 "Hg10 mi
10:53 PM62 °FPassing clouds.6 mph78%29.99 "Hg10 mi
9:53 PM63 °FClear.6 mph78%29.98 "Hg10 mi
8:53 PM63 °FPassing clouds.No wind75%29.97 "Hg10 mi
7:53 PM67 °FPassing clouds.6 mph63%29.96 "Hg10 mi
6:53 PM68 °FSunny.5 mph61%29.95 "Hg10 mi
5:53 PM69 °FSunny.6 mph59%29.96 "Hg10 mi
4:53 PM70 °FSunny.7 mph55%29.96 "Hg10 mi
3:53 PM70 °FPassing clouds.6 mph53%29.97 "Hg10 mi
2:53 PM69 °FPassing clouds.7 mph57%29.97 "Hg10 mi
1:53 PM68 °FSunny.8 mph59%29.97 "Hg10 mi
Weather by CustomWeather, © 2014

See weather overviewHow to use our weather pages